Погода в Браилове

Украина / Винницкая область     49°06′19″N   28°09′12″E
темп.,
°C
ветер,
м/с
пор.,
м/с
влажн.,
%
обл.,
%
осадки,
мм/ч
давл.,
гПа
погр.,
м
8 марта, пн
пн823:00−1з5157025 0.0 1016547
02:00−2з5147312 0.0 1014569
05:00−3з6148322 0.0 1014498
08:00−2з6128916 0.0 1013602
11:00+1зсз698377 0.0 1014882
14:00+1ссз588073 0.4 1014747
17:000сз596693 0.0 1015998
20:00−3сз4117846 0.0 1017449
9 марта, вт
вт923:00−4сз37780 0.0 1019286
02:00−4зсз36760 0.0 1020235
05:00−4зсз35840 0.0 1020196
08:00−4сз46770 0.0 1021402
11:00−1сз456752 0.1 10221088
14:000ссз335976 0.3 10221127
17:00−1с3361100 0.1 1022957
20:00−3св237170 0.1 102474
10 марта, ср
ср1023:00−3всв24730 0.0 1025191
02:00−4вюв257610 0.0 1025213
05:00−4вюв367779 0.0 1025355
08:00−4юв577790 0.0 1025487
11:00−2юв5775100 0.0 1025646
14:00−1юв5776100 0.1 1024743
17:00−2вюв5766100 0.0 1024773
20:00−3вюв4767100 0.0 1025542
11 марта, чт
чт1123:00−3вюв3662100 0.0 1026489
02:00−3вюв356893 0.0 1026331
05:00−4юв356698 0.0 1026337
08:00−4юв356198 0.0 1027363
11:00−1ююв454613 0.0 1027789
14:00+1ююв45427 0.0 10261085
17:000ююв454724 0.0 1025910
20:00−2юв495825 0.0 1025331
12 марта, пт
пт1223:00−2ююв6125389 0.0 1025547
02:00−2ю7145594 0.0 1023592
05:00−2ю81459100 0.0 1021685
08:00−1ю91567100 0.0 1020672
11:00+1ю101565100 0.0 1019828
14:00+4ю91364100 0.0 10181093
17:00+1ююз71396100 1.1 1017675
20:00+1юз3498100 2.4 1018139